Location: Budapest
(47.4979°N, 19.0402°E)
Time: 17:09:49
(UTC+02:00)

Tiangong 1 - Pass Details

Date: 15 October 2017
Orbit: 292 x 319 km, 42.8° (Epoch: 23 October)

Event Time Altitude Azimuth Distance (km) Brightness Sun altitude
Rises 18:38:19 0° 264° (W) 2,051 7.4 -7.9°
Reaches altitude 10° 18:40:41 10° 243° (WSW) 1,213 4.8 -8.3°
Maximum altitude 18:42:36 17° 199° (SSW) 885 3.2 -8.6°
Drops below altitude 10° 18:44:29 10° 154° (SSE) 1,199 3.3 -9.0°
Enters shadow 18:45:44 - 140° (SE) 1,613 3.9 -9.2°
